Tracking 30157 objects as of 13-Feb-2025
HD Live streaming from Space Station
objects crossing your sky now

STARLINK-4169

Track STARLINK-4169 now!
10-day predictions
STARLINK-4169 is classified as:


NORAD ID: 53280
Int'l Code: 2022-086AQ
Perigee: 545.8 km
Apogee: 548.0 km
Inclination: 53.2 °
Period: 95.4 minutes
Semi major axis: 6917 km
RCS: Unknown
Launch date: July 24, 2022
Source: United States (US)
Launch site: AIR FORCE EASTERN TEST RANGE (AFETR)
Your satellite tracking list
Your tracking list is empty




NASA's NSSDC Master Catalog

Two Line Element Set (TLE):
1 53280U 22086AQ  25043.38951515  .00001340  00000-0  10229-3 0  9992
2 53280  53.2166  90.9186 0001527  86.7445 273.3721 15.08833728142912
Source of the keplerian elements: AFSPC